FLOCK 2K-41 (42875 NORAD) Tracking and Keplerian Element Data

This shows tracking and keplerian element data for the satellite.

Feedback or suggestion? Click here.




ElementValue
Catalog42875
NameFLOCK 2K-41
Epoch Orbit27386
Epoch Day147.535208
Epoch Year2022
RAAN350.5597
Inclination96.7988
Eccentricity0.0009182
Argument of Perigee159.4402
Mean Anonmoly200.725
Mean Motion16.02230856
Decay Rate0.00821503
L11 42875U 17042BC 22147.53520800 .00821503 33047-3 14273-2 0 9997
L22 42875 96.7988 350.5597 0009182 159.4402 200.7250 16.02230856273869



Live tracking and technical data element details for FLOCK 2K-41 (NORAD 42875). FLOCK 2K-41 can be tracked NOW for your location showing map with azimuth and elevation plus other details from your city location.







IsCatalogInMostPopularTable: catalog: 42875, numindb: 563
Update: records affected: 1



GetName: 42875 FLOCK 2K-41

Hit Count: updated at: Thu, 22 May 2025 03:35:47 GMT